MST,Max TemperatureF,Mean TemperatureF,Min TemperatureF,Max Dew PointF,MeanDew PointF,Min DewpointF,Max Humidity, Mean Humidity, Min Humidity, Max Sea Level PressureIn, Mean Sea Level PressureIn, Min Sea Level PressureIn, Max VisibilityMiles, Mean VisibilityMiles, Min VisibilityMiles, Max Wind SpeedMPH, Mean Wind SpeedMPH, Max Gust SpeedMPH,PrecipitationIn, CloudCover, Events, WindDirDegrees
2012-12-1,58,49,40,31,26,23,57,42,27,29.90,29.81,29.72,10,10,10,39,19,47,0.00,0,,270
2012-12-2,60,48,35,31,25,22,64,44,24,29.88,29.66,29.45,10,10,10,38,16,52,0.00,0,,202
2012-12-3,54,39,24,33,19,10,85,54,23,30.24,29.97,29.57,10,10,10,44,13,54,T,1,,288
2012-12-4,52,35,17,31,19,11,74,47,20,30.35,30.19,29.99,10,10,10,29,9,38,0.00,0,,266
2012-12-5,64,55,45,32,30,28,54,40,26,29.99,29.81,29.70,10,10,10,38,22,48,0.00,2,,273
2012-12-6,46,35,23,31,24,19,78,61,44,30.04,29.92,29.81,10,10,10,24,8,31,0.00,3,,101
2012-12-7,40,28,15,23,18,13,84,62,40,30.01,29.92,29.81,10,10,10,24,9,30,T,3,,292
2012-12-8,41,29,17,28,21,12,92,65,38,30.02,29.76,29.62,10,4,0,28,16,38,T,7,Fog-Snow,316
2012-12-9,,,,,,,,,,30.24,30.11,29.90,10,10,10,22,12,35,0.00,3,,294
2012-12-10,31,23,14,19,14,7,84,66,47,30.09,29.88,29.82,10,10,3,23,11,38,T,7,Snow,316
2012-12-11,38,22,6,23,17,6,91,70,48,30.08,29.84,29.64,10,10,10,29,9,37,0.00,1,,249
2012-12-12,49,39,29,20,19,17,56,44,31,29.90,29.72,29.63,10,10,10,32,16,40,0.00,0,,247
2012-12-13,51,38,25,21,18,13,63,46,28,29.97,29.92,29.87,10,10,10,21,5,25,0.00,0,,275
2012-12-14,46,32,18,21,18,13,77,56,34,29.84,29.72,29.60,10,10,10,10,4,14,0.00,0,,42
2012-12-15,36,28,19,25,21,15,81,69,56,29.82,29.76,29.64,10,10,10,16,7,18,0.00,6,,305
2012-12-16,41,29,17,21,12,8,91,60,29,29.81,29.73,29.66,10,10,10,33,12,40,0.00,3,,276
2012-12-17,50,32,13,24,17,7,74,54,34,29.77,29.55,29.42,10,10,10,43,18,52,T,1,,281
2012-12-18,35,28,20,9,3,-5,52,36,20,29.87,29.76,29.57,10,10,10,23,9,29,0.00,2,,313
2012-12-19,28,15,2,3,-2,-9,56,42,27,30.29,30.09,29.86,10,10,10,21,8,25,0.00,4,,344
2012-12-20,45,24,2,2,-2,-8,55,35,14,30.35,30.25,30.17,10,10,10,31,12,39,0.00,0,,288
2012-12-21,53,35,17,0,-1,-3,39,25,10,30.20,30.10,29.96,10,10,10,23,7,29,0.00,0,,289
2012-12-22,54,39,23,2,-1,-5,35,23,10,30.11,29.97,29.79,10,10,10,23,8,26,0.00,0,,277
2012-12-23,45,29,13,14,8,-3,67,43,19,30.02,29.89,29.72,10,10,10,40,18,49,0.00,1,,267
2012-12-24,37,22,7,20,11,1,88,66,44,30.22,29.94,29.80,10,6,1,22,9,25,T,8,Snow,58
2012-12-25,12,3,-7,4,-1,-11,87,77,66,30.45,30.28,30.07,10,6,2,10,5,32,0.01,5,Snow,357
2012-12-26,22,7,-9,18,9,-10,87,77,67,30.21,29.86,29.61,10,6,0,15,3,17,T,6,Fog-Snow,138
2012-12-27,19,13,7,13,10,7,92,83,73,30.08,29.83,29.64,10,5,1,23,12,28,T,8,Snow,308
2012-12-28,27,14,0,16,8,-5,84,72,60,30.29,30.15,30.04,10,10,10,22,9,26,0.00,4,,320
2012-12-29,30,16,1,14,5,-3,87,74,60,30.36,30.23,30.02,10,10,10,22,4,29,0.00,0,,169
2012-12-30,31,17,2,12,4,-2,83,56,29,30.26,30.14,30.00,10,10,10,22,6,28,0.00,0,,304
2012-12-31,23,11,-1,10,1,-5,88,75,61,30.29,30.23,30.15,10,10,10,12,5,14,0.00,2,,327